When you browse on this site, cookies collect data to enhance your experience and personalize the content and advertising you see.
Visit our Privacy Policy to learn more. By continuing to use the site, you agree to this use of cookies and data.
  • In United Kingdom
  • List of Countries
  • For 7 days
  • Water Temperature
  • Weather Map
  • Weather Widgets
  • user-avatar
    Login

    Hourly Weather Natitingou

    Today, 20 October, Sunday

    Time Temperature Precipitation Wind Pressure Humidity
    00:00 +24°C° 0 mm 3 mps 717 mmHg 92%
    01:00 +23°C° 0.4 mm 2 mps 717 mmHg 93%
    02:00 +23°C° 0.4 mm 2 mps 716 mmHg 94%
    03:00 +23°C° 0.4 mm 1 mps 716 mmHg 95%
    04:00 +23°C° 0.2 mm 1 mps 716 mmHg 95%
    05:00 +23°C° 0.2 mm 1 mps 717 mmHg 96%
    06:00 +23°C° 0 mm 2 mps 717 mmHg 95%
    07:00 +24°C° 0 mm 2 mps 717 mmHg 93%
    08:00 +24°C° 0 mm 2 mps 718 mmHg 91%
    09:00 +25°C° 0 mm 2 mps 718 mmHg 90%
    10:00 +26°C° 0 mm 2 mps 718 mmHg 83%
    11:00 +28°C° 0 mm 3 mps 717 mmHg 77%
    12:00 +29°C° 0 mm 3 mps 717 mmHg 71%
    13:00 +29°C° 0.2 mm 3 mps 716 mmHg 71%
    14:00 +29°C° 0.2 mm 3 mps 716 mmHg 72%
    15:00 +29°C° 0.2 mm 2 mps 715 mmHg 72%
    16:00 +28°C° 0.3 mm 2 mps 716 mmHg 78%
    17:00 +26°C° 0.3 mm 2 mps 716 mmHg 84%
    18:00 +25°C° 0.3 mm 2 mps 716 mmHg 89%
    19:00 +25°C° 0.1 mm 2 mps 717 mmHg 90%
    20:00 +24°C° 0.1 mm 2 mps 717 mmHg 91%
    21:00 +24°C° 0.1 mm 3 mps 718 mmHg 92%
    22:00 +22°C° 0 mm 3 mps 718 mmHg 93%
    23:00 +23°C° 0 mm 2 mps 718 mmHg 93%

    Tomorrow, 21 October, Monday

    Time Temperature Precipitation Wind Pressure Humidity
    00:00 +23°C° 0 mm 2 mps 717 mmHg 94%
    01:00 +23°C° 0 mm 2 mps 717 mmHg 94%
    02:00 +23°C° 0 mm 2 mps 717 mmHg 95%
    03:00 +23°C° 0 mm 2 mps 717 mmHg 95%
    04:00 +23°C° 0 mm 2 mps 717 mmHg 95%
    05:00 +23°C° 0 mm 2 mps 718 mmHg 94%
    06:00 +23°C° 0 mm 2 mps 718 mmHg 94%
    07:00 +24°C° 0 mm 2 mps 718 mmHg 89%
    08:00 +26°C° 0 mm 2 mps 719 mmHg 84%
    09:00 +27°C° 0 mm 2 mps 720 mmHg 79%
    10:00 +28°C° 0.4 mm 2 mps 719 mmHg 75%
    11:00 +29°C° 0.4 mm 2 mps 718 mmHg 71%
    12:00 +30°C° 0.4 mm 2 mps 718 mmHg 67%
    13:00 +30°C° 0 mm 1 mps 717 mmHg 65%
    14:00 +31°C° 0 mm 1 mps 717 mmHg 64%
    15:00 +31°C° 0 mm 1 mps 716 mmHg 63%
    16:00 +29°C° 0 mm 1 mps 716 mmHg 69%
    17:00 +26°C° 0 mm 0 mps 716 mmHg 75%
    18:00 +25°C° 0 mm 0 mps 716 mmHg 81%
    19:00 +24°C° 0.1 mm 0 mps 716 mmHg 82%
    20:00 +24°C° 0.1 mm 0 mps 717 mmHg 84%
    21:00 +23°C° 0.1 mm 0 mps 717 mmHg 86%
    22:00 +23°C° 0 mm 0 mps 717 mmHg 87%
    23:00 +25°C° 0 mm 1 mps 717 mmHg 89%

    Day after tomorrow, 22 October, Tuesday

    Time Temperature Precipitation Wind Pressure Humidity
    00:00 +25°C° 0 mm 1 mps 717 mmHg 90%
    01:00 +24°C° 0 mm 1 mps 716 mmHg 91%
    02:00 +24°C° 0 mm 1 mps 716 mmHg 93%
    03:00 +24°C° 0 mm 2 mps 715 mmHg 95%
    04:00 +24°C° 0 mm 1 mps 716 mmHg 95%
    05:00 +24°C° 0 mm 1 mps 716 mmHg 96%
    06:00 +23°C° 0 mm 1 mps 716 mmHg 97%
    07:00 +25°C° 0 mm 1 mps 717 mmHg 90%
    08:00 +27°C° 0 mm 2 mps 717 mmHg 83%
    09:00 +29°C° 0 mm 2 mps 718 mmHg 76%
    10:00 +30°C° 0 mm 2 mps 717 mmHg 70%
    11:00 +32°C° 0 mm 1 mps 717 mmHg 65%
    12:00 +33°C° 0 mm 1 mps 716 mmHg 59%
    13:00 +32°C° 2 mm 1 mps 715 mmHg 62%
    14:00 +32°C° 2 mm 1 mps 715 mmHg 66%
    15:00 +31°C° 2 mm 1 mps 714 mmHg 70%
    16:00 +29°C° 0.6 mm 1 mps 714 mmHg 74%
    17:00 +28°C° 0.6 mm 1 mps 714 mmHg 78%
    18:00 +27°C° 0.6 mm 1 mps 714 mmHg 82%
    19:00 +26°C° 0.4 mm 1 mps 715 mmHg 83%
    20:00 +26°C° 0.4 mm 1 mps 715 mmHg 85%
    21:00 +25°C° 0.4 mm 1 mps 716 mmHg 87%
    22:00 +25°C° 0.1 mm 1 mps 715 mmHg 87%
    23:00 +25°C° 0.1 mm 1 mps 715 mmHg 87%

    23 October, Wednesday

    Time Temperature Precipitation Wind Pressure Humidity
    00:00 +25°C° 0.1 mm 1 mps 715 mmHg 87%
    01:00 +25°C° 0.1 mm 1 mps 715 mmHg 88%
    02:00 +25°C° 0.1 mm 1 mps 715 mmHg 90%
    03:00 +24°C° 0.1 mm 1 mps 714 mmHg 91%
    04:00 +24°C° 0 mm 1 mps 714 mmHg 91%
    05:00 +24°C° 0 mm 1 mps 715 mmHg 91%
    06:00 +24°C° 0 mm 1 mps 715 mmHg 91%
    07:00 +26°C° 0 mm 1 mps 715 mmHg 85%
    08:00 +27°C° 0 mm 1 mps 716 mmHg 79%
    09:00 +29°C° 0 mm 1 mps 717 mmHg 73%
    10:00 +30°C° 0.3 mm 1 mps 716 mmHg 69%
    11:00 +31°C° 0.3 mm 1 mps 716 mmHg 66%
    12:00 +32°C° 0.3 mm 1 mps 716 mmHg 62%
    13:00 +32°C° 0.4 mm 1 mps 715 mmHg 62%
    14:00 +32°C° 0.4 mm 1 mps 715 mmHg 63%
    15:00 +32°C° 0.4 mm 1 mps 714 mmHg 63%
    16:00 +30°C° 0.7 mm 1 mps 715 mmHg 70%
    17:00 +28°C° 0.7 mm 1 mps 715 mmHg 77%
    18:00 +27°C° 0.7 mm 1 mps 715 mmHg 85%
    19:00 +26°C° 0 mm 1 mps 715 mmHg 86%
    20:00 +26°C° 0 mm 1 mps 716 mmHg 87%
    21:00 +26°C° 0 mm 2 mps 716 mmHg 88%
    22:00 +25°C° 0 mm 2 mps 716 mmHg 89%
    23:00 +25°C° 0 mm 2 mps 716 mmHg 90%

    24 October, Thursday

    Time Temperature Precipitation Wind Pressure Humidity
    00:00 +25°C° 0 mm 3 mps 716 mmHg 91%
    01:00 +24°C° 0 mm 2 mps 716 mmHg 92%
    02:00 +24°C° 0 mm 2 mps 716 mmHg 93%
    03:00 +23°C° 0 mm 1 mps 715 mmHg 95%
    04:00 +23°C° 0 mm 1 mps 715 mmHg 95%
    05:00 +23°C° 0 mm 1 mps 716 mmHg 95%
    06:00 +23°C° 0 mm 1 mps 716 mmHg 95%
    07:00 +25°C° 0 mm 1 mps 716 mmHg 89%
    08:00 +26°C° 0 mm 2 mps 717 mmHg 83%
    09:00 +28°C° 0 mm 2 mps 718 mmHg 78%
    10:00 +30°C° 0 mm 2 mps 717 mmHg 71%
    11:00 +31°C° 0 mm 1 mps 717 mmHg 64%
    12:00 +33°C° 0 mm 1 mps 716 mmHg 57%
    13:00 +33°C° 0.1 mm 1 mps 716 mmHg 57%
    14:00 +32°C° 0.1 mm 1 mps 716 mmHg 57%
    15:00 +32°C° 0.1 mm 1 mps 715 mmHg 57%
    16:00 +30°C° 0.2 mm 1 mps 715 mmHg 63%
    17:00 +29°C° 0.2 mm 1 mps 715 mmHg 69%
    18:00 +27°C° 0.2 mm 1 mps 715 mmHg 74%
    19:00 +26°C° 0 mm 1 mps 716 mmHg 78%
    20:00 +26°C° 0 mm 1 mps 716 mmHg 81%
    21:00 +25°C° 0 mm 1 mps 717 mmHg 84%
    22:00 +25°C° 0 mm 1 mps 716 mmHg 85%
    23:00 +25°C° 0 mm 1 mps 716 mmHg 86%

    25 October, Friday

    Time Temperature Precipitation Wind Pressure Humidity
    00:00 +24°C° 0 mm 1 mps 716 mmHg 88%
    01:00 +24°C° 0 mm 1 mps 716 mmHg 88%
    02:00 +24°C° 0 mm 1 mps 716 mmHg 89%
    03:00 +24°C° 0 mm 1 mps 716 mmHg 89%
    04:00 +24°C° 0 mm 1 mps 716 mmHg 90%
    05:00 +23°C° 0 mm 1 mps 716 mmHg 91%
    06:00 +23°C° 0 mm 1 mps 716 mmHg 92%
    07:00 +25°C° 0 mm 1 mps 717 mmHg 85%
    08:00 +27°C° 0 mm 1 mps 717 mmHg 78%
    09:00 +29°C° 0 mm 2 mps 718 mmHg 72%
    10:00 +30°C° 0 mm 2 mps 717 mmHg 65%
    11:00 +32°C° 0 mm 2 mps 717 mmHg 59%
    12:00 +33°C° 0 mm 1 mps 716 mmHg 52%
    13:00 +34°C° 0 mm 2 mps 716 mmHg 51%
    14:00 +35°C° 0 mm 2 mps 715 mmHg 49%
    15:00 +35°C° 0 mm 2 mps 714 mmHg 47%
    16:00 +32°C° 0 mm 1 mps 714 mmHg 52%
    17:00 +30°C° 0 mm 1 mps 714 mmHg 57%
    18:00 +28°C° 0 mm 1 mps 715 mmHg 61%
    19:00 +28°C° 0 mm 1 mps 715 mmHg 62%
    20:00 +25°C° 0 mm 0 mps 715 mmHg 62%
    21:00 +25°C° 0 mm 0 mps 716 mmHg 63%
    22:00 +27°C° 0 mm 1 mps 716 mmHg 64%
    23:00 +26°C° 0 mm 1 mps 715 mmHg 66%
    Show more